Location: Leipzig
(51.3392°N, 12.3528°E)
Time: 07:24:27
(UTC+02:00)

ISS - Visible Passes

Search period start: 29 March 2017 00:00
Search period end: 08 April 2017 00:00
Orbit: 399 x 409 km, 51.6° (Epoch: 29 March)

Date Brightness Start Highest point End Pass type
(mag) Time Alt. Az. Time Alt. Az. Time Alt. Az.
29 Mar -3.0 21:42:46 10° SW 21:45:05 38° SSW 21:45:05 38° SSW visible
30 Mar -3.1 20:50:38 10° SW 20:53:39 35° SSE 20:55:19 21° E visible
30 Mar -1.7 22:26:40 10° W 22:28:00 22° W 22:28:00 22° W visible
31 Mar -4.0 21:34:18 10° WSW 21:37:33 75° SSE 21:38:03 59° ESE visible
01 Apr -3.7 20:41:59 10° WSW 20:45:11 57° SSE 20:47:58 13° E visible
01 Apr -2.7 22:18:21 10° W 22:20:37 41° W 22:20:37 41° W visible
02 Apr -3.9 21:25:55 10° W 21:29:12 87° N 21:30:25 36° E visible
02 Apr -1.0 23:02:25 10° W 23:03:04 15° W 23:03:04 15° W visible
03 Apr -3.9 20:33:29 10° WSW 20:36:45 81° SSE 20:40:02 10° E visible
03 Apr -3.4 22:09:58 10° W 22:12:46 62° W 22:12:46 62° W visible
04 Apr -3.8 21:17:31 10° W 21:20:48 83° N 21:22:25 27° E visible
04 Apr -1.3 22:54:01 10° W 22:55:04 19° W 22:55:04 19° W visible
05 Apr -3.8 20:25:02 10° W 20:28:19 85° N 20:31:37 10° E visible
05 Apr -3.8 22:01:32 10° W 22:04:40 71° SW 22:04:40 71° SW visible
06 Apr -3.9 21:09:04 10° W 21:12:21 88° S 21:14:15 23° E visible
06 Apr -1.5 22:45:38 10° W 22:46:54 20° W 22:46:54 20° W visible
07 Apr -3.5 21:53:03 10° W 21:56:15 48° SSW 21:56:28 47° S visible
